FW8089 Weather Reports


time (UTC)temp
F
wind
direction
speed
knots
gust
knots
rain 1hr
in
rain 24hr
in
rain mn
in
humidity
%
barometer
mb
20260506072959 59 229 0.0 2.6 0.00 0.00 0.00 86 1026.8
20260506072452 59 112 0.0 0.0 0.00 0.00 0.00 86 1026.8
20260506071948 59 94 0.9 2.6 0.00 0.00 0.00 86 1026.7
20260506071429 59 155 0.9 2.6 0.00 0.00 0.00 86 1026.8
20260506070923 59 122 0.9 2.6 0.00 0.00 0.00 86 1026.8
20260506070420 59 94 0.9 2.6 0.00 0.00 0.00 86 1026.8
20260506062047 58 33 0.0 2.6 0.00 0.00 0.00 84 1026.7
20260506061528 58 82 0.0 1.7 0.00 0.00 0.00 83 1026.6
20260506061014 58 112 0.0 1.7 0.00 0.00 0.00 83 1026.6
20260506060459 58 147 0.0 0.9 0.00 0.00 0.00 83 1026.6
20260506051130 62 82 0.0 2.6 0.00 0.00 0.00 77 1026.7
20260506045001 64 298 1.7 7.0 0.00 0.00 0.00 74 1026.8
20260506044455 65 289 1.7 7.0 0.00 0.00 0.00 74 1026.8
20260506043942 65 321 1.7 7.0 0.00 0.00 0.00 73 1026.8
20260506043445 66 355 1.7 7.0 0.00 0.00 0.00 72 1026.8
20260506042325 65 209 1.7 4.3 0.00 0.00 0.00 74 1026.9
20260506041816 65 325 1.7 4.3 0.00 0.00 0.00 74 1027.0
20260506040659 65 291 2.6 7.0 0.00 0.00 0.00 74 1027.0
20260506040158 65 251 2.6 7.0 0.00 0.00 0.00 73 1027.0
20260506035644 65 246 2.6 6.1 0.00 0.00 0.00 74 1026.9
20260506035130 64 275 2.6 6.1 0.00 0.00 0.00 74 1026.9
20260506034626 65 305 1.7 6.1 0.00 0.00 0.00 73 1027.0
20260506034129 65 351 1.7 7.8 0.00 0.00 0.00 73 1027.0
20260506033620 64 263 2.6 7.8 0.00 0.00 0.00 73 1027.0
20260506033120 64 327 1.7 8.7 0.00 0.00 0.00 73 1027.0
20260506032604 64 324 2.6 8.7 0.00 0.00 0.00 72 1027.0
20260506032052 65 328 2.6 8.7 0.00 0.00 0.00 71 1027.0
20260506031546 65 270 2.6 8.7 0.00 0.00 0.00 71 1027.0
20260506031051 66 279 2.6 6.1 0.00 0.00 0.00 70 1026.9
20260506030550 66 327 2.6 7.0 0.00 0.00 0.00 69 1026.9
20260506025405 67 263 2.6 7.0 0.00 0.00 0.00 69 1026.9
20260506024903 66 352 2.6 7.0 0.00 0.00 0.00 69 1026.9
20260506024356 65 319 1.7 4.3 0.00 0.00 0.00 71 1026.9
20260506023846 65 10 2.6 5.2 0.00 0.00 0.00 70 1026.9
20260506023328 65 323 2.6 5.2 0.00 0.00 0.00 69 1026.9
20260506022825 66 332 2.6 7.0 0.00 0.00 0.00 69 1026.8
20260506022318 66 291 2.6 7.0 0.00 0.00 0.00 67 1026.8
20260506021140 67 317 2.6 8.7 0.00 0.00 0.00 68 1026.8
20260506020620 66 0 3.5 8.7 0.00 0.00 0.00 68 1026.8
20260506020129 66 307 3.5 8.7 0.00 0.00 0.00 66 1026.9
20260506015609 67 277 3.5 8.7 0.00 0.00 0.00 67 1026.8
20260506015103 67 297 2.6 8.7 0.00 0.00 0.00 67 1026.9
20260506014559 67 294 2.6 8.7 0.00 0.00 0.00 67 1026.9
20260506014044 67 253 3.5 7.8 0.00 0.00 0.00 67 1026.9
20260506013539 66 331 2.6 7.8 0.00 0.00 0.00 67 1027.0
20260506013047 66 274 3.5 7.8 0.00 0.00 0.00 67 1027.1
20260506012530 66 346 3.5 7.8 0.00 0.00 0.00 67 1027.2
20260506012014 66 24 2.6 7.8 0.00 0.00 0.00 67 1027.2
20260506011502 66 14 1.7 7.0 0.00 0.00 0.00 67 1027.3
20260506011003 65 304 1.7 7.0 0.00 0.00 0.00 69 1027.3
20260506010503 65 341 1.7 7.0 0.00 0.00 0.00 69 1027.4
20260506010000 65 296 2.6 8.7 0.00 0.00 0.00 68 1027.4
20260506005503 65 333 3.5 8.7 0.00 0.00 0.00 68 1027.5
20260506004947 65 338 3.5 8.7 0.00 0.00 0.00 68 1027.5
20260506004453 65 0 3.5 8.7 0.00 0.00 0.00 67 1027.6
20260506004001 66 284 3.5 9.6 0.00 0.00 0.00 68 1027.6
20260506003459 65 352 3.5 9.6 0.00 0.00 0.00 68 1027.7
20260506002941 65 350 3.5 9.6 0.00 0.00 0.00 68 1027.9
20260506002446 65 350 4.3 9.6 0.00 0.00 0.00 67 1027.9
20260506001310 65 9 3.5 8.7 0.00 0.00 0.00 68 1028.0
20260506000756 65 319 3.5 7.0 0.00 0.00 0.00 68 1028.1
20260505235633 65 338 3.5 10.4 0.00 0.00 0.00 68 1028.2
20260505235114 65 327 3.5 10.4 0.00 0.00 0.00 68 1028.1
20260505233336 66 2 2.6 8.7 0.00 0.00 0.00 67 1028.2
20260505232834 66 291 2.6 7.8 0.00 0.00 0.00 68 1028.2
20260505232319 65 285 3.5 8.7 0.00 0.00 0.00 69 1028.2
20260505231822 65 355 3.5 8.7 0.00 0.00 0.00 69 1028.2
20260505231306 65 305 3.5 8.7 0.00 0.00 0.00 68 1028.3
20260505230815 65 0 3.5 8.7 0.00 0.00 0.00 71 1028.3
20260505225022 64 12 1.7 7.0 0.00 0.00 0.00 72 1028.3
20260505224524 64 18 2.6 5.2 0.00 0.00 0.00 73 1028.3
20260505223402 64 65 2.6 7.8 0.00 0.00 0.00 73 1028.4
20260505222850 64 301 2.6 7.8 0.00 0.00 0.00 73 1028.4
20260505222353 64 28 2.6 7.8 0.00 0.00 0.00 73 1028.4
20260505221842 63 155 2.6 7.8 0.00 0.00 0.00 73 1028.5
20260505221347 63 324 2.6 7.8 0.00 0.00 0.00 73 1028.5
20260505220833 63 7 4.3 8.7 0.00 0.00 0.00 73 1028.5
20260505220335 63 2 4.3 8.7 0.00 0.00 0.00 74 1028.5
20260505215815 62 24 3.5 8.7 0.00 0.00 0.00 74 1028.6
20260505215319 62 31 3.5 8.7 0.00 0.00 0.00 74 1028.7
20260505214813 62 33 3.5 7.8 0.00 0.00 0.00 74 1028.6
20260505214314 62 14 3.5 7.8 0.00 0.00 0.00 74 1028.7
20260505213758 62 37 4.3 7.8 0.00 0.00 0.00 74 1028.6
20260505213252 62 21 3.5 7.8 0.00 0.00 0.00 75 1028.6
20260505212748 61 36 3.5 7.0 0.00 0.00 0.00 76 1028.6
20260505212251 61 16 3.5 6.1 0.00 0.00 0.00 77 1028.6
20260505211752 61 23 3.5 7.0 0.00 0.00 0.00 76 1028.7
20260505211249 60 16 3.5 7.0 0.00 0.00 0.00 77 1028.7
20260505210108 60 17 3.5 7.0 0.00 0.00 0.00 77 1028.8
20260505205602 60 35 2.6 6.1 0.00 0.00 0.00 78 1028.8
20260505205048 59 9 1.7 5.2 0.00 0.00 0.00 78 1028.8
20260505202016 58 26 1.7 4.3 0.00 0.00 0.00 79 1028.7
20260505201520 58 31 1.7 7.0 0.00 0.00 0.00 79 1028.6
20260505201001 58 5 1.7 7.0 0.00 0.00 0.00 80 1028.7
20260505200506 58 291 1.7 7.0 0.00 0.00 0.00 80 1028.7
20260505200002 57 5 1.7 7.0 0.00 0.00 0.00 80 1028.6
20260505195448 57 23 1.7 3.5 0.00 0.00 0.00 81 1028.7
20260505193702 55 26 0.9 2.6 0.00 0.00 0.00 83 1028.6
20260505193203 55 17 0.9 3.5 0.00 0.00 0.00 83 1028.6
20260505192709 54 28 0.9 3.5 0.00 0.00 0.00 84 1028.6
20260505192150 54 16 1.7 3.5 0.00 0.00 0.00 84 1028.6
20260505191629 54 60 0.9 2.6 0.00 0.00 0.00 84 1028.5
20260505191050 54 26 0.0 1.7 0.00 0.00 0.00 83 1028.5
20260505185921 54 96 0.9 1.7 0.00 0.00 0.00 83 1028.4
20260505185410 54 79 0.9 3.5 0.00 0.00 0.00 83 1028.5
20260505184916 54 85 0.9 3.5 0.00 0.00 0.00 83 1028.5
20260505184405 54 101 0.0 1.7 0.00 0.00 0.00 83 1028.6
20260505183847 54 200 0.0 1.7 0.00 0.00 0.00 83 1028.6
20260505182722 54 112 0.9 0.0 0.00 0.00 0.00 83 1028.6
20260505182209 54 101 0.9 3.5 0.00 0.00 0.00 83 1028.5
20260505181708 54 82 0.9 1.7 0.00 0.00 0.00 83 1028.6
20260505181158 54 89 0.0 1.7 0.00 0.00 0.00 83 1028.6
20260505180707 54 79 0.0 1.7 0.00 0.00 0.00 83 1028.7
20260505180158 54 321 0.9 1.7 0.00 0.00 0.00 83 1028.7
20260505175650 54 91 0.0 1.7 0.00 0.00 0.00 83 1028.7
20260505175150 54 89 0.0 1.7 0.00 0.00 0.00 82 1028.7
20260505174638 54 112 0.0 1.7 0.00 0.00 0.00 82 1028.7
20260505174138 54 75 0.0 1.7 0.00 0.00 0.00 82 1028.8
20260505173623 54 66 0.9 1.7 0.00 0.00 0.00 82 1028.8
20260505171820 54 49 0.0 1.7 0.00 0.00 0.00 81 1028.8
20260505171325 55 49 0.9 3.5 0.00 0.00 0.00 81 1028.9
20260505170819 55 23 0.9 3.5 0.00 0.00 0.00 81 1028.9
20260505170322 55 91 1.7 3.5 0.00 0.00 0.00 81 1028.8
20260505165821 55 66 1.7 3.5 0.00 0.00 0.00 81 1028.9
20260505165316 54 73 0.9 2.6 0.00 0.00 0.00 81 1029.0
20260505164822 54 28 0.0 2.6 0.00 0.00 0.00 81 1029.2
20260505163644 54 30 0.9 2.6 0.00 0.00 0.00 82 1029.1
20260505163128 54 53 0.9 1.7 0.00 0.00 0.00 82 1029.1
20260505162634 54 17 0.0 2.6 0.00 0.00 0.00 82 1029.2
20260505162113 54 23 0.0 2.6 0.00 0.00 0.00 82 1029.2
20260505161607 54 94 0.9 2.6 0.00 0.00 0.00 82 1029.2
20260505161111 54 33 0.9 2.6 0.00 0.00 0.00 83 1029.3
20260505160612 53 37 0.9 1.7 0.00 0.00 0.00 82 1029.3
20260505153234 53 350 0.0 1.7 0.00 0.00 0.00 83 1029.4
20260505152734 52 23 0.9 2.6 0.00 0.00 0.00 83 1029.5
20260505152234 52 301 0.9 2.6 0.00 0.00 0.00 83 1029.5
20260505151107 52 23 0.9 3.5 0.00 0.00 0.00 83 1029.5
20260505150546 52 161 1.7 3.5 0.00 0.00 0.00 84 1029.5
20260505140236 51 49 0.9 1.7 0.00 0.00 0.00 83 1029.8
20260505124929 50 77 0.9 2.6 0.00 0.00 0.00 84 1030.4
20260505124437 50 114 0.9 2.6 0.00 0.00 0.00 84 1030.4
20260505123928 49 126 0.9 2.6 0.00 0.00 0.00 84 1030.4
20260505123413 49 137 0.9 2.6 0.00 0.00 0.00 84 1030.4
20260505122858 49 116 0.9 2.6 0.00 0.00 0.00 84 1030.5
20260505122356 49 94 0.9 2.6 0.00 0.00 0.00 84 1030.6
20260505121839 49 66 0.9 2.6 0.00 0.00 0.00 84 1030.6
20260505120737 48 118 0.0 3.5 0.00 0.00 0.00 84 1030.7
20260505120218 48 338 0.9 3.5 0.00 0.00 0.00 84 1030.6
20260505115705 48 90 0.9 3.5 0.00 0.00 0.00 84 1030.7
20260505114552 47 103 0.0 3.5 0.00 0.00 0.00 84 1030.7
20260505114056 47 104 0.9 3.5 0.00 0.00 0.00 83 1030.8
20260505113558 47 293 0.9 5.2 0.00 0.00 0.00 83 1030.8
20260505113054 47 66 0.9 5.2 0.00 0.00 0.00 83 1030.8
20260505112543 47 312 2.6 5.2 0.00 0.00 0.00 83 1030.9
20260505112023 47 72 2.6 5.2 0.00 0.00 0.00 83 1030.8
20260505111513 47 75 1.7 3.5 0.00 0.00 0.00 83 1031.0
20260505111007 48 82 1.7 3.5 0.00 0.00 0.00 83 1030.9
20260505110508 47 97 0.0 3.5 0.00 0.00 0.00 84 1031.0
20260505101814 47 49 0.9 2.6 0.00 0.00 0.00 83 1031.4
20260505101313 48 91 0.9 2.6 0.00 0.00 0.00 83 1031.3
20260505100755 48 75 0.9 3.5 0.00 0.00 0.00 83 1031.4
20260505100238 48 66 0.9 3.5 0.00 0.00 0.00 83 1031.4
20260505095732 48 124 0.9 5.2 0.00 0.00 0.00 83 1031.4
20260505095224 48 85 0.9 5.2 0.00 0.00 0.00 83 1031.3
20260505094718 48 5 1.7 5.2 0.00 0.00 0.00 83 1031.4
20260505094209 48 97 1.7 5.2 0.00 0.00 0.00 83 1031.3
20260505093654 47 85 0.9 3.5 0.00 0.00 0.00 83 1031.4
20260505093141 48 97 0.9 3.5 0.00 0.00 0.00 83 1031.4
20260505092629 47 105 0.9 3.5 0.00 0.00 0.00 83 1031.3
20260505092108 48 66 0.9 2.6 0.00 0.00 0.00 83 1031.3
20260505090950 48 66 0.9 3.5 0.00 0.00 0.00 82 1031.3
20260505085812 48 79 0.9 2.6 0.00 0.00 0.00 83 1031.3
20260505084009 48 124 0.9 3.5 0.00 0.00 0.00 82 1031.4
20260505083516 48 37 0.9 3.5 0.00 0.00 0.00 82 1031.5
20260505083009 48 89 0.9 4.3 0.00 0.00 0.00 83 1031.5
20260505082456 48 102 2.6 4.3 0.00 0.00 0.00 83 1031.5
20260505081938 48 106 2.6 4.3 0.00 0.00 0.00 83 1031.6
20260505081436 48 108 1.7 4.3 0.00 0.00 0.00 83 1031.5
20260505080918 48 85 0.9 3.5 0.00 0.00 0.00 83 1031.6
20260505080403 48 108 0.9 3.5 0.00 0.00 0.00 83 1031.6
20260505075221 48 90 0.9 2.6 0.00 0.00 0.00 82 1031.7
20260505074712 48 84 0.9 2.6 0.00 0.00 0.00 82 1031.8
20260505074157 48 79 0.0 2.6 0.00 0.00 0.00 82 1031.8
20260505073655 48 117 0.0 1.7 0.00 0.00 0.00 82 1031.8
20260505073150 48 23 0.9 1.7 0.00 0.00 0.00 82 1031.8